Regional Weather Roundup
Issued by NWS

Home | Current Version | Previous Version | Graphics & Text | Print | Product List | Glossary On
Versions: 1 2 3 4 5 6 7 8 9 10 11 12 13 14 15 16 17 18 19 20 21 22 23 24 25 26 27 28 29 30 31 32 33 34 35 36 37 38 39 40 41 42 43 44 45 46 47 48 49 50
000
ASUS43 KIND 222159
RWRIN

WEATHER ROUNDUP FOR INDIANA
NATIONAL WEATHER SERVICE INDIANAPOLIS IN
600 PM EDT TUE APR 22 2014

NOTE: "FAIR" INDICATES FEW OR NO CLOUDS BELOW 12,000 FEET WITH NO
SIGNIFICANT WEATHER AND/OR OBSTRUCTIONS TO VISIBILITY.

* - STATION DOES NOT REPORT WEATHER SUCH AS PRECIPITATION OR FOG.

+ - STATION NOT QUALITY CONTROLLED BY THE NATIONAL WEATHER SERVICE.
    USE DATA WITH CAUTION...ESPECIALLY DEWPOINT AND RELATIVE
    HUMIDITY OBSERVATIONS.

INZ001>003-010>013-019-020-222300-
NORTHWEST INDIANA

CITY           SKY/WX    TMP DP  RH WIND       PRES   REMARKS
GARY /AIRPORT/ MOSUNNY   46  30  53 NE10      30.00R
MONTICELLO +   SUNNY     56  34  42 N10       29.94S
RENSSELAER +   SUNNY     59  32  36 NW9       29.94S
VALPARAISO     SUNNY     49  30  48 N10       29.98R

$$

LMZ046-743>745-222300-
SOUTHERN LAKE MICHIGAN

STATION/POSITION TIME  TEMP WIND        PRES
                       AIR  DIR/SP/G
                 (UTC) (F)  (DEG/KT/KT) (MB)
MICHIGAN CITY    2100   40   20/ 17/ 20   N/A

$$

INZ004-005-014>016-021>024-222300-
NORTH CENTRAL INDIANA

CITY           SKY/WX    TMP DP  RH WIND       PRES   REMARKS
ELKHART        MOSUNNY   50  28  43 NW10G21   29.96R
GOSHEN         PTSUNNY   50  31  48 N23G31    29.94R
SOUTH BEND     SUNNY     50  31  48 N15G26    29.98R

$$

INZ006>009-017-018-025>027-222300-
NORTHEAST INDIANA

CITY           SKY/WX    TMP DP  RH WIND       PRES   REMARKS
ANGOLA *+      PTSUNNY   52  34  50 NW17      29.89R
FORT WAYNE     MOSUNNY   52  31  44 NW21G30   29.91R

$$

INZ028-029-035-036-043>045-051>053-222300-
WEST CENTRAL INDIANA

CITY           SKY/WX    TMP DP  RH WIND       PRES   REMARKS
GREENCASTLE +  SUNNY     61  34  36 NW8G16    29.92S
LAFAYETTE      SUNNY     57  35  43 NW10G17   29.94S
TERRE HAUTE    SUNNY     65  35  33 NW14G23   29.92F

$$

INZ030>032-037>040-046>048-054>057-064-065-222300-
CENTRAL INDIANA

CITY           SKY/WX    TMP DP  RH WIND       PRES   REMARKS
INDIANAPOLIS   MOSUNNY   59  35  40 N16G26    29.91S
-EAGLE CREEK   SUNNY     58  33  39 N16       29.92R
KOKOMO *+      SUNNY     54  30  40 N18G25    29.94S
MT COMFORT *+  SUNNY     57  34  41 NW15      29.93R
SHELBYVILLE    SUNNY     62  33  33 N21       29.91R

$$

INZ033-034-041-042-049-050-058-059-222300-
EAST CENTRAL INDIANA

CITY           SKY/WX    TMP DP  RH WIND       PRES   REMARKS
MUNCIE         SUNNY     55  32  41 NW20G28   29.91R

$$

INZ060-061-067>069-081>083-085>088-222300-
SOUTHWEST INDIANA

CITY           SKY/WX    TMP DP  RH WIND       PRES   REMARKS
EVANSVILLE     SUNNY     68  39  34 NW8       29.92S
HUNTINGBURG *+ SUNNY     66  39  37 N16G24    29.91F

$$

INZ062-063-066-070>080-084-089>092-222300-
SOUTH CENTRAL AND SOUTHEAST INDIANA

CITY           SKY/WX    TMP DP  RH WIND       PRES   REMARKS
BLOOMINGTON    SUNNY     64  32  30 NW9G22    29.91R

$$




USA.gov is the U.S. government's official web portal to all federal, state and local government web resources and services.